JCSAT-2A

Last updated on Wed Apr 21 2021 09:03:16 GMT+0100 (British Summer Time)

1 27399U 02015A 21110.87688470 -.00000068 00000-0 00000-0 0 9996 2 27399 3.6285 82.8493 0009616 0.2994 180.4226 0.99025586 70000
UTC large
Height (km)
Speed (km/s)
/
Latitude / Longitude
Inclination (degrees)
Orbital Period (minutes)
Azimuth
Elevation
Range (km)
Doppler Factor

Next 0 passes for location: London (51.5072 / 0.1276)

Sorry there are no passes over London.